Simultaneous Nadir Overpasses (SNOs) Predictions

Prediction of SNOs between AQUA and METOP-B Satellite Orbit:

Table of predicted SNOs for the next 14.0 days since TLE Epoch: 11/18/2023
Index Date (AQUA) Time (AQUA) Lat,Lon (AQUA) SZA (AQUA ) Date (METOP-B) Time (METOP-B) Lat,Lon (METOP-B) SZA (METOP-B ) Distance(km) Time Diff (sec)
1 11/20/2023 18:04:58 -75.01, 85.20 85.33 11/20/2023 18:04:20 -74.99, 85.17 85.35 3.03 38
2 11/20/2023 18:54:23 75.05,-107.25 94.73 11/20/2023 18:54:58 75.08,-107.25 94.75 2.61 35
3 11/23/2023 11:06:58 75.01, 9.75 95.26 11/23/2023 11:06:35 75.00, 9.62 95.25 3.78 23
4 11/23/2023 11:56:23 -75.11, 177.14 84.64 11/23/2023 11:57:15 -75.08, 177.18 84.66 2.96 52
5 11/26/2023 03:19:28 74.70, 127.43 95.49 11/26/2023 03:18:19 74.63, 125.68 95.42 52.17 69
6 11/26/2023 04:08:58 -75.05, -65.82 84.16 11/26/2023 04:08:52 -75.05, -65.82 84.16 0.12 6
7 11/26/2023 04:58:23 75.10, 101.69 95.90 11/26/2023 04:59:31 75.09, 101.62 95.89 2.79 68
8 11/28/2023 20:21:32 -74.99, 51.23 83.73 11/28/2023 20:20:29 -75.01, 51.15 83.71 3.23 63
9 11/28/2023 21:10:58 75.10,-141.40 96.38 11/28/2023 21:11:07 75.09,-141.28 96.38 3.42 9
10 11/28/2023 22:00:31 -75.58, 24.89 83.12 11/28/2023 22:01:38 -75.60, 27.57 83.10 74.43 67
11 12/01/2023 13:23:31 75.03, -24.34 96.76 12/01/2023 13:22:44 75.04, -24.33 96.77 1.06 47
12 12/01/2023 14:12:55 -75.07, 143.21 83.20 12/01/2023 14:13:25 -75.08, 143.10 83.19 3.41 30



Historial Predications of SNOs between AQUA and METOP-B
